Location: Unspecified
(0.0000°N, 0.0000°E)
Time: 07:13:31
(UTC+00:00)

Vanguard 1 - Pass Details

Date: 19 December 2018
Orbit: 654 x 3829 km, 34.2° (Epoch: 19 June)

Event Time Altitude Azimuth Distance (km) Brightness Sun altitude
Rises 17:51:19 0° 254° (WSW) 7,466 17.3 1.4°
Reaches altitude 10° 17:58:34 10° 239° (WSW) 6,762 16.5 -0.3°
Maximum altitude 18:14:27 22° 196° (SSW) 5,904 14.6 -4.0°
Drops below altitude 10° 18:29:21 10° 151° (SSE) 6,274 14.1 -7.4°
Sets 18:35:47 0° 136° (SE) 6,819 14.1 -8.8°
